Location: Newark
(3.8581°S, 32.4250°W)
Time: 09:36:56
(UTC+00:00)

Hubble Space Telescope - Visible Passes

Search period start: 18 September 2019 00:00
Search period end: 28 September 2019 00:00
Orbit: 536 x 540 km, 28.5° (Epoch: 17 September)

Date Brightness Start Highest point End Pass type
(mag) Time Alt. Az. Time Alt. Az. Time Alt. Az.
18 Sep 3.3 21:48:19 10° SSW 21:49:04 13° SSW 21:49:04 13° SSW visible
19 Sep 2.6 21:37:21 10° SSW 21:39:27 22° S 21:39:27 22° S visible
20 Sep 1.7 21:26:31 10° SW 21:29:53 35° SSE 21:29:53 35° SSE visible
21 Sep 0.9 21:15:48 10° SW 21:19:50 52° SSE 21:20:23 48° ESE visible
22 Sep 0.7 21:05:09 10° SW 21:09:17 76° SSE 21:10:56 35° ENE visible
23 Sep 0.8 20:54:36 10° WSW 20:58:44 75° NNW 21:01:29 20° NE visible
24 Sep 1.4 20:44:09 10° WSW 20:48:11 51° NNW 20:52:04 11° NE visible
25 Sep 3.5 07:01:37 10° NNE 07:02:45 11° NNE 07:03:55 10° NE visible
25 Sep 2.1 20:33:49 10° W 20:37:37 35° NNW 20:41:26 10° NE visible
26 Sep 3.3 06:49:47 10° N 06:52:14 15° NNE 06:54:42 10° ENE visible
26 Sep 2.7 20:23:37 10° W 20:27:04 25° NNW 20:30:32 10° NNE visible
27 Sep 2.9 06:39:25 14° N 06:41:43 21° NNE 06:44:52 10° E visible
